www.pogodaiklimat.ru

Погода и климат >> Архив погоды >> Россия >> Саратовская область >> Красный Кут


ПОГОДА в Красном Куте

  • Прогноз погоды в Красном Куте
  • Монитор погоды в Красном Куте

АРХИВ ПОГОДЫ в Красном Куте

Время (UTC), дата Ветер
(напр.,м/с)
 
Видим.   Явления Облачность Т
(С)
Тd
(С)
f
(%)
Тe
(С)
Тes
(С)
Комфортность P
(гПа)
Po
(гПа)
Тmin
(С)
Tmax
(С)
R
(мм)
R24
(мм)
S
(см)
15 15.08 ЮВ 1 10 км ясно +31.6 +12.2 31 +32 +33 жарко 1013.7 1008.1 +33.2
18 15.08 В 1 10 км ясно +22.3 +14.0 59 +25 +25 комфорт 1014.5 1008.7
21 15.08 СВ 1 10 км ясно +19.0 +12.4 66 +21 +21 комфорт 1015.0 1009.1
00 16.08 ЮВ 2 10 км ясно +19.9 +11.8 60 +22 +22 комфорт 1015.0 1009.2
03 16.08 В 1 10 км 4/0
[Ac trans Ci fib]
+17.7 +12.3 71 +19 +20 1014.6 1008.8 +15.3
06 16.08 ЮВ 4 10 км 4/0
[Ac trans Ci fib]
+27.1 +11.8 39 +28 +33 жарко 1013.9 1008.2
09 16.08 Ю 5-10
{13}
10 км 6/0
[Ac trans Ci fib]
+31.4 +11.4 29 +32 +37 жарко 1013.0 1007.4
12 16.08 Ю 4
{11}
10 км 8/0
[Ac trans Ci fib]
+31.9 +10.8 27 +32 +35 жарко 1012.4 1006.8
15 16.08 Ю 1 10 км 8/0
[Ac trans Ci fib]
+30.0 +12.0 33 +31 +31 жарко 1011.6 1006.0 +32.4
18 16.08 ЮВ 1 10 км 8/0
[Ac trans]
+24.3 +10.2 41 +25 +25 комфорт 1012.5 1006.8
21 16.08 ЮВ 2 10 км 8/0
[Ac trans]
+22.5 +8.5 41 +24 +24 комфорт 1012.6 1006.8
00 17.08 Ю 2 10 км 6/0
[Ac trans]
+20.6 +7.8 44 +22 +22 комфорт 1013.2 1007.4
03 17.08 Ю 2 10 км 10/6 1500 м
[Sc Ac trans]
+19.5 +9.5 52 +21 +21 комфорт 1013.3 1007.5 +19.3
06 17.08 ЮВ 2 10 км 8/0
[Ac trans]
+26.8 +12.8 42 +28 +33 жарко 1013.8 1008.1 +19.1
09 17.08 ЮВ 2 10 км 8/0
[Ac trans]
+31.0 +8.8 25 +30 +37 жарко 1012.8 1007.2
12 17.08 Ю 3 10 км 8/0
[Ac trans]
+33.6 +7.1 19 +32 +35 жарко 1011.4 1005.8
15 17.08 ЮВ 2 10 км 6/0
[Ac trans]
+32.2 +7.1 21 +31 +31 жарко 1010.7 1005.1 +34.4
18 17.08 ЮВ 2 10 км 4/0
[Ac trans]
+28.1 +5.5 24 +27 +27 жарко 1010.9 1005.3
21 17.08 Ю 2 10 км 4/0
[Ac trans]
+26.1 +7.2 30 +26 +26 жарко 1012.0 1006.3
00 18.08 ЮВ 2 10 км 6/0
[Ac trans]
+22.2 +6.7 37 +23 +23 комфорт 1012.6 1006.8
03 18.08 ЮВ 2 10 км 8/6 1500 м
[Sc Ac trans]
+22.8 +8.2 39 +24 +24 комфорт 1012.8 1007.1 +22.0
06 18.08 Ю 2 10 км 8/3 1500 м
[Cb cap Ac trans Ci fib]
+25.3 +11.5 42 +27 +30 жарко 1014.1 1008.4
09 18.08 ЮВ 3 10 км 8/0
[Ac trans]
+29.4 +10.0 30 +29 +35 жарко 1014.4 1008.8
12 18.08 ЮВ 3 10 км 8/5 1500 м
[Cu hum Ac trans Ci fib]
+33.4 +7.0 19 +31 +34 жарко 1013.5 1007.9
15 18.08 Ю 3 10 км 8/0
[Ac trans Ci fib]
+31.4 +6.6 21 +30 +30 жарко 1013.1 1007.5 +34.0
18 18.08 ЮВ 2 10 км 8/5 1500 м
[Sc Ac trans]
+28.3 +7.0 26 +28 +28 жарко 1014.4 1008.7
21 18.08 ЮВ 2
{10}
10 км 8/6 1500 м
[Sc Ac trans]
+25.9 +8.0 32 +26 +26 жарко 1015.6 1009.9
00 19.08 В 1 10 км 6/4 1500 м
[Sc Ac trans]
+19.6 +10.7 56 +22 +22 комфорт 1016.3 1010.5
03 19.08 штиль 0 10 км 4/0
[Ac trans]
+17.5 +11.5 68 +18 +18 1017.4 1011.6 +16.6
06 19.08 В 1 10 км в посл. час дождь 8/4 1500 м
[Sc Ac trans]
+26.1 +13.0 44 +28 +31 жарко 1017.6 1011.9
09 19.08 ЮВ 2 10 км 8/0
[Ac trans Ci fib]
+34.5 +9.2 21 +33 +43 жарко 1016.3 1010.7
12 19.08 ЮЗ 5
{11}
10 км 8/4 1500 м
[Sc Ac trans]
+31.7 +6.1 20 +30 +31 жарко 1017.5 1011.9
15 19.08 штиль 0 10 км 4/0
[Ac trans Ci fib]
+31.4 +12.7 32 +32 +33 жарко 1017.2 1011.6 +35.2 0.0
18 19.08 В 1 10 км 6/4 1500 м
[Sc Ac trans Ci fib]
+21.1 +12.5 58 +23 +23 комфорт 1017.9 1012.1
21 19.08 В 1 10 км 4/3 1500 м
[Sc Ac trans]
+20.2 +9.4 50 +23 +23 комфорт 1017.7 1011.9
00 20.08 Ю 2 10 км 4/0
[Ac trans Ci fib]
+23.4 +8.4 38 +25 +25 комфорт 1018.0 1012.2
03 20.08 Ю 1 10 км 5/3 1500 м
[Cb cap Ac trans Ci fib]
+20.7 +10.5 52 +24 +24 комфорт 1018.9 1013.1 +18.1
06 20.08 ЮЗ 3 10 км 6/0
[Ac trans Ci fib]
+27.9 +11.5 36 +29 +34 жарко 1019.3 1013.6
09 20.08 Ю 5-10
{10}
10 км 3/0
[Ac trans]
+34.4 +5.4 16 +32 +38 жарко 1018.7 1013.1
12 20.08 Ю 4
{11}
10 км ясно +36.4 +5.3 15 +34 +39 очень
жарко
1017.5 1012.0
15 20.08 Ю 1 10 км ясно +34.0 +8.4 21 +33 +33 жарко 1016.7 1011.2 +36.4
18 20.08 штиль 0 10 км 4/3 1500 м
[Sc Ac trans]
+20.1 +12.3 61 +22 +22 комфорт 1017.0 1011.2
21 20.08 СЗ 2 10 км зарница 6/6 1500 м
[Cb cap]
+21.7 +15.5 68 +25 +25 комфорт 1017.1 1011.4
00 21.08 С 3 10 км ясно +20.5 +16.8 79 +24 +24 комфорт 1017.7 1011.9
03 21.08 С 4 10 км 3/3 1500 м
[Sc]
+21.2 +17.0 77 +25 +25 комфорт 1018.4 1012.6 +18.4
06 21.08 С 5 10 км ясно +27.0 +16.9 54 +31 +35 душно 1019.0 1013.3
09 21.08 СВ 6
{11}
10 км ясно +30.4 +15.0 39 +33 +38 душно 1018.8 1013.2
12 21.08 СВ 5-10
{12}
10 км ясно +31.0 +13.2 34 +32 +36 жарко 1018.5 1012.9
15 21.08 С 6-10
{11}
10 км ясно +28.4 +13.4 40 +30 +30 жарко 1018.8 1013.2 +31.2
18 21.08 СВ 5
{10}
10 км ясно +24.6 +13.8 51 +27 +27 жарко 1019.5 1013.8
21 21.08 СВ 3 10 км ясно +21.4 +14.9 66 +24 +24 комфорт 1019.8 1014.0
00 22.08 СВ 2 10 км ясно +19.3 +14.9 76 +21 +21 комфорт 1020.2 1014.3
03 22.08 СВ 2 10 км ясно +18.6 +14.8 79 +20 +21 1020.8 1014.9 +18.0
06 22.08 СВ 3 10 км ясно +24.9 +15.6 56 +28 +35 жарко 1020.7 1015.0
09 22.08 СВ 4 10 км ясно +28.7 +13.2 39 +30 +39 жарко 1019.9 1014.2
12 22.08 СВ 3 10 км ясно +31.0 +12.3 32 +32 +38 жарко 1018.8 1013.2

 

Местоположение метеостанции Красный Кут (Саратовская область, Россия): широта 50.95 долгота 46.97 высота над уровнем моря 50 м.

В архиве по умолчанию представлена погода в Красном Куте за последнюю неделю. Архивные данные за месяц целиком и за предыдущие месяцы, начиная с января 2011 года, Вы можете получить, выбрав интересующий диапазон дат из раскрывающегося списка и нажав кнопку "Ввод!".


*Определитесь, кто Вы:
робот инопланетянин человек

Внимание! Время в таблицах - всемирное. Для получения местного времени необходимо прибавить поправку, которая равна 4 ч.

Смотрите также архив погоды в соседних городах и на ближайших метеорологических станциях:

Погода в Маркс (Саратовская область, Россия) (85 км)
Погода в Саратове (Саратовская область, Россия) (95 км)
Погода в Саратове ЮВ (Саратовская область, Россия) (97 км)
Погода в Новоузенске (Саратовская область, Россия) (100 км)
Погода в Палласовке (Волгоградская область, Россия) (100 км)
Погода в Ершове (Саратовская область, Россия) (104 км)
Погода в Сплавнухе (Саратовская область, Россия) (112 км)
Погода в Октябрьском Городке (Саратовская область, Россия) (130 км)
Погода в Балаково (Саратовская область, Россия) (133 км)
Погода в Александровом Гае (Саратовская область, Россия) (143 км)

Пояснения к столбцам:

Ветер - указаны скорость ветра в м/с - средняя за 10 мин, порывы в срок и между сроками (в фигурных скобках) и направление, откуда дует ветер: С - северный, СВ - северо-восточный, В - восточный, ЮВ - юго-восточный, Ю - южный, ЮЗ - юго-западный, З - западный, СЗ - северо-западный.
Видимость - горизонтальная дальность видимости в метрах или километрах. При видимости от 1 до 10 км при отсутствии осадков обычно наблюдается дымка, при ухудшении видимости до 1 км и менее - туман. В сухую погоду видимость может ухудшаться дымом, пылью или мглою.
Явления - указаны атмосферные явления, наблюдавшиеся в срок или в последний час перед сроком; фигурными скобками обозначены явления, наблюдавшиеся между сроками (за 1-3 часа до срока); квадратными скобками обозначены град или гололедные отложения с указанием их диаметра в мм.
Облачность - указаны через наклонную черту общая и нижняя облачность в баллах и высота нижней границы облаков в метрах; квадратными скобками обозначены формы облаков: Ci - перистые, Cs - перисто-слоистые, Cc - перисто-кучевые, Ac - высококучевые, As - высокослоистые, Sc - слоисто-кучевые, Ns - слоисто-дождевые, Cu - кучевые, Cb - кучево-дождевые. Подробнее классификацию облаков см. в Атласе облаков (PDF).
T - Температура воздуха - температура, измеренная на высоте 2 м над землей.
Td - Температура точки росы - температура, при понижении до которой содержащийся в воздухе водяной пар достигнет насыщения.
f - Относительная влажность воздуха - влажноcть воздуха, измеренная на высоте 2 м над землей.
Te - Эффективная температура - температура, которую ощущает одетый по сезону человек в тени. Характеристика душности погоды. При расчете учитывается влияние влажности воздуха и скорости ветра на теплоощущения человека.
Tes - Эффективная температура на солнце - температура, которую ощущает человек, с поправкой на солнечный нагрев. Характеристика знойности погоды. Зависит от высоты солнца над горизонтом, облачности и скорости ветра. Ночью, в пасмурную погоду, а также при ветре 12 м/с и более поправка равна нулю.
P - Атмосферное давление - приведенное к уровню моря атмосферное давление.
Po - Атмосферное давление - измеренное на уровне метеостанции атмосферное давление.
Tmin - Минимальная температура - минимум температуры воздуха на высоте 2 м над землей.
Tmax - Максимальная температура - максимум температуры воздуха на высоте 2 м над землей.
R - Количество осадков - Количество выпавших осадков за период времени, мм. При наведении курсора мыши на число - период времени, за который выпало указанное количество осадков.
R24 - Количество осадков - Количество выпавших осадков за 24 часа, мм.
S - Снежный покров - Высота снежного покрова, см. При наведении курсора мыши на число - состояние снежного покрова и степень покрытия местности в баллах.